TimeEDT,TemperatureF,Dew PointF,Humidity,Sea Level PressureIn,VisibilityMPH,Wind Direction,Wind SpeedMPH,Gust SpeedMPH,PrecipitationIn,Events,Conditions,WindDirDegrees,DateUTC
12:53 AM,43.0,41.0,93,30.04,10.0,NW,3.5,-,N/A,,Clear,310,2013-04-06 04:53:00
1:53 AM,41.0,39.0,93,30.04,9.0,Calm,Calm,-,N/A,,Clear,0,2013-04-06 05:53:00
2:23 AM,42.8,41.0,93,30.03,3.0,Calm,Calm,-,N/A,,Partly Cloudy,0,2013-04-06 06:23:00
2:53 AM,41.0,39.0,93,30.04,8.0,Calm,Calm,-,N/A,,Clear,0,2013-04-06 06:53:00
3:09 AM,41.0,39.2,93,30.04,7.0,Calm,Calm,-,N/A,,Scattered Clouds,0,2013-04-06 07:09:00
3:18 AM,42.8,39.2,87,30.04,8.0,Calm,Calm,-,N/A,,Mostly Cloudy,0,2013-04-06 07:18:00
3:41 AM,41.0,39.2,93,30.04,1.5,Calm,Calm,-,N/A,,Overcast,0,2013-04-06 07:41:00
3:44 AM,42.8,39.2,87,30.04,1.0,Calm,Calm,-,N/A,,Mist,0,2013-04-06 07:44:00
3:53 AM,41.0,39.0,93,30.04,0.8,Calm,Calm,-,N/A,,Mist,0,2013-04-06 07:53:00
4:04 AM,41.0,39.2,93,30.05,1.5,Calm,Calm,-,N/A,,Mostly Cloudy,0,2013-04-06 08:04:00
4:06 AM,41.0,39.2,93,30.04,3.0,Calm,Calm,-,N/A,,Mostly Cloudy,0,2013-04-06 08:06:00
4:18 AM,41.0,39.2,93,30.05,8.0,Calm,Calm,-,N/A,,Scattered Clouds,0,2013-04-06 08:18:00
4:53 AM,39.0,37.0,93,30.06,7.0,Calm,Calm,-,N/A,,Clear,0,2013-04-06 08:53:00
5:53 AM,39.0,37.0,93,30.08,9.0,Calm,Calm,-,N/A,,Clear,0,2013-04-06 09:53:00
6:53 AM,39.0,37.0,93,30.10,10.0,Calm,Calm,-,N/A,,Clear,0,2013-04-06 10:53:00
7:53 AM,43.0,41.0,93,30.14,10.0,Calm,Calm,-,N/A,,Clear,0,2013-04-06 11:53:00
8:53 AM,52.0,45.0,77,30.17,10.0,NNE,13.8,21.9,N/A,,Clear,30,2013-04-06 12:53:00
9:53 AM,57.9,39.0,49,30.19,10.0,NE,10.4,-,N/A,,Clear,50,2013-04-06 13:53:00
10:53 AM,62.1,36.0,38,30.21,10.0,NE,10.4,-,N/A,,Clear,40,2013-04-06 14:53:00
11:53 AM,64.0,35.1,34,30.22,10.0,ENE,8.1,-,N/A,,Clear,60,2013-04-06 15:53:00
12:53 PM,64.0,37.9,38,30.22,10.0,ESE,9.2,-,N/A,,Clear,120,2013-04-06 16:53:00
1:53 PM,64.0,37.9,38,30.22,10.0,East,11.5,-,N/A,,Clear,100,2013-04-06 17:53:00
2:53 PM,61.0,39.0,44,30.21,10.0,ESE,12.7,20.7,N/A,,Clear,110,2013-04-06 18:53:00
3:53 PM,60.1,42.1,51,30.21,10.0,East,15.0,20.7,N/A,,Clear,90,2013-04-06 19:53:00
4:53 PM,57.9,42.1,56,30.20,10.0,East,16.1,23.0,N/A,,Clear,90,2013-04-06 20:53:00
5:53 PM,57.0,42.1,57,30.22,10.0,East,16.1,-,N/A,,Clear,90,2013-04-06 21:53:00
6:53 PM,55.9,39.9,55,30.24,10.0,East,12.7,19.6,N/A,,Clear,80,2013-04-06 22:53:00
7:53 PM,53.1,39.0,59,30.25,10.0,East,10.4,-,N/A,,Clear,90,2013-04-06 23:53:00
8:53 PM,53.1,37.9,57,30.27,10.0,East,11.5,-,N/A,,Clear,100,2013-04-07 00:53:00
9:53 PM,52.0,39.0,61,30.28,10.0,East,8.1,-,N/A,,Clear,80,2013-04-07 01:53:00
10:53 PM,50.0,39.0,66,30.29,10.0,ENE,6.9,-,N/A,,Clear,70,2013-04-07 02:53:00
11:53 PM,46.9,39.0,74,30.28,10.0,ENE,5.8,-,N/A,,Clear,60,2013-04-07 03:53:00